Location: Chatou
(48.8898°N, 2.1586°E)
Time: 08:46:44
(UTC+00:00)

VELOX 1 - Pass Details

Date: 12 December 2023
Orbit: 608 x 622 km, 98.4° (Epoch: 24 February)

Event Time Altitude Azimuth Distance (km) Brightness Sun altitude
Rises 05:33:18 0° 142° (SE) 2,859 ? -19.0°
Reaches altitude 10° 05:35:35 10° 133° (SE) 1,960 ? -18.6°
Maximum altitude 05:39:29 36° 67° (ENE) 970 ? -18.0°
Drops below altitude 10° 05:43:25 10° 1° (N) 1,979 ? -17.4°
Enters shadow 05:45:15 - 354° (N) 2,696 ? -17.1°
